Weather History for Stockton, CA

Change the Weather History Date:

Sunday, January 6, 2013

  Actual Average Record
Temperature  
Mean Temperature 43 °F -  
Max Temperature 50 °F 52 °F 63 °F (1986)
Min Temperature 35 °F 37 °F 21 °F (1950)
Degree Days  
Heating Degree Days 22 20  
Month to date heating degree days 140 120  
Since 1 July heating degree days 1044 1180  
Cooling Degree Days 0 0  
Month to date cooling degree days 0 0  
Year to date cooling degree days 0 0  
Moisture  
Dew Point 43 °F    
Average Humidity 90    
Maximum Humidity 100    
Minimum Humidity 80    
Precipitation  
Precipitation 0.45 in 0.08 in 0.68 in (1993)
Month to date precipitation 1.18 0.49  
Year to date precipitation 1.18 0.49  
Since 1 July precipitation 8.30 5.52  
Snow  
Snow 0.00 in - - ()
Month to date snowfall 0.0  
Since 1 July snowfall 0.0  
Snow Depth 0.00 in    
Sea Level Pressure  
Sea Level Pressure 30.12 in    
Wind  
Wind Speed 4 mph (WNW)    
Max Wind Speed 10 mph    
Max Gust Speed 28 mph    
Visibility 3 miles    
Events Fog , Rain    
T = Trace of Precipitation, MM = Missing Value Source: NWS Daily Summary

Daily Weather History Graph

Daily Weather History Graph

Search for Another Location

Airport:

Trip Planner

Search our weather history database for the weather conditions in past years. The results will help you decide how hot, cold, wet, or windy it might be!

Date:

Astronomy

Jan. 06, 2013 Rise Set
Actual Time 7:20 AM PST 5:01 PM PST
Civil Twilight 6:51 AM PST 5:30 PM PST
Nautical Twilight 6:19 AM PST 6:03 PM PST
Astronomical Twilight 5:47 AM PST 6:34 PM PST
Moon 1:43 AM PST (1/6) 12:30 PM PST (1/6)
Length of Visible Light 10h 38m
Length of Day
9h 40m
Waning Crescent, 32% of the Moon is Illuminated
Jan 6
Waning Crescent
Jan 11
New
Jan 18
First Quarter
Jan 26
Full
Feb 3
Last Quarter

Hourly Weather History & Observations

Time (PST) Temp. Windchill Dew Point Humidity Pressure Visibility Wind Dir Wind Speed Gust Speed Precip Events Conditions
12:24 AM 44.6 °F 43.1 °F 44.6 °F 100% 30.08 in 1.0 mi East 3.5 mph - 0.05 in Rain Light Rain
12:27 AM 44.6 °F - 44.6 °F 100% 30.08 in 0.8 mi Calm Calm - 0.05 in Rain Light Rain
12:36 AM 44.6 °F 43.1 °F 44.6 °F 100% 30.09 in 0.8 mi SE 3.5 mph - 0.07 in Rain Light Rain
12:46 AM 44.6 °F 43.1 °F 44.6 °F 100% 30.09 in 1.0 mi South 3.5 mph - 0.08 in Rain Light Rain
12:55 AM 45.0 °F 43.5 °F 45.0 °F 100% 30.08 in 0.8 mi WSW 3.5 mph - 0.09 in Rain Light Rain
1:25 AM 44.6 °F 39.2 °F 44.6 °F 100% 30.08 in 1.2 mi West 10.4 mph - 0.04 in Rain Rain
1:46 AM 44.6 °F 42.2 °F 44.6 °F 100% 30.08 in 1.8 mi WNW 4.6 mph - 0.08 in Rain Rain
1:55 AM 44.1 °F 42.5 °F 44.1 °F 100% 30.09 in 1.8 mi West 3.5 mph - 0.09 in Rain Light Rain
2:23 AM 44.6 °F - 44.6 °F 100% 30.08 in 1.8 mi Calm Calm - 0.02 in Rain Light Rain
2:36 AM 44.6 °F - 44.6 °F 100% 30.09 in 2.0 mi Calm Calm - 0.02 in Rain Light Rain
2:53 AM 44.6 °F 42.2 °F 44.6 °F 100% 30.09 in 3.0 mi SW 4.6 mph - 0.02 in Rain Light Rain
2:55 AM 44.1 °F 41.5 °F 44.1 °F 100% 30.09 in 2.5 mi SW 4.6 mph - 0.02 in Rain Light Rain
3:55 AM 44.1 °F 40.8 °F 44.1 °F 100% 30.09 in 2.5 mi SW 5.8 mph - 0.02 in Rain Light Rain
4:14 AM 42.8 °F 39.3 °F 42.8 °F 100% 30.08 in 3.0 mi West 5.8 mph - 0.00 in   Overcast
4:55 AM 44.1 °F 40.8 °F 43.0 °F 96% 30.09 in 3.0 mi West 5.8 mph - 0.00 in   Overcast
5:19 AM 44.6 °F 42.2 °F 44.6 °F 100% 30.09 in 2.5 mi West 4.6 mph - 0.00 in Rain Light Rain
5:55 AM 44.1 °F - 43.0 °F 96% 30.11 in 2.0 mi Calm Calm - 0.05 in Rain Light Rain
6:34 AM 44.6 °F - 44.6 °F 100% 30.11 in 2.5 mi Calm Calm - 0.04 in Rain Light Rain
6:55 AM 44.1 °F 40.8 °F 44.1 °F 100% 30.11 in 2.5 mi SW 5.8 mph - 0.06 in Rain Light Rain
7:55 AM 44.1 °F 41.5 °F 44.1 °F 100% 30.13 in 2.5 mi West 4.6 mph - 0.05 in Rain Rain
8:53 AM 44.6 °F 42.2 °F 44.6 °F 100% 30.14 in 3.0 mi South 4.6 mph - 0.06 in Rain Light Rain
8:55 AM 44.1 °F 41.5 °F 44.1 °F 100% 30.14 in 3.0 mi South 4.6 mph - 0.06 in Rain Light Rain
9:55 AM 45.0 °F 42.6 °F 44.1 °F 97% 30.16 in 2.0 mi WSW 4.6 mph - 0.00 in Rain Light Rain
10:55 AM 45.0 °F - 44.1 °F 97% 30.16 in 4.0 mi Calm Calm - 0.01 in   Overcast
11:55 AM 46.0 °F 44.8 °F 44.1 °F 93% 30.14 in 4.0 mi NNW 3.5 mph - 0.00 in   Overcast
12:42 PM 46.4 °F 44.3 °F 44.6 °F 93% 30.14 in 2.5 mi North 4.6 mph - 0.01 in Rain Light Rain
12:52 PM 46.4 °F 42.9 °F 44.6 °F 93% 30.14 in 3.0 mi North 6.9 mph - 0.01 in Rain Light Rain
12:55 PM 46.0 °F 42.5 °F 45.0 °F 96% 30.14 in 2.5 mi North 6.9 mph - 0.01 in Rain Light Rain
1:11 PM 46.4 °F 43.5 °F 46.4 °F 100% 30.13 in 5.0 mi North 5.8 mph - 0.00 in   Overcast
1:18 PM 46.4 °F 42.9 °F 46.4 °F 100% 30.13 in 9.0 mi North 6.9 mph - 0.00 in   Overcast
1:55 PM 48.0 °F - 45.0 °F 89% 30.13 in 10.0 mi North 4.6 mph - 0.00 in   Overcast
2:02 PM 48.2 °F - 44.6 °F 87% 30.14 in 10.0 mi North 6.9 mph - N/A   Overcast
2:55 PM 50.0 °F - 45.0 °F 83% 30.14 in 10.0 mi NW 8.1 mph - N/A   Overcast
3:55 PM 48.9 °F - 46.0 °F 90% 30.13 in 10.0 mi West 8.1 mph - N/A   Partly Cloudy
4:55 PM 46.9 °F - 45.0 °F 93% 30.13 in 8.0 mi West 5.8 mph - N/A   Clear
5:55 PM 45.0 °F 40.6 °F 44.1 °F 97% 30.14 in 7.0 mi WNW 8.1 mph - N/A   Clear
6:55 PM 44.1 °F 39.5 °F 42.1 °F 93% 30.14 in 7.0 mi WNW 8.1 mph - N/A   Clear
7:55 PM 39.9 °F - 39.0 °F 97% 30.15 in 7.0 mi Calm Calm - N/A   Clear
8:55 PM 41.0 °F 39.0 °F 39.9 °F 96% 30.16 in 6.0 mi NNW 3.5 mph - N/A   Clear
9:55 PM 39.0 °F - 39.0 °F 100% 30.16 in 4.0 mi Calm Calm - N/A   Clear
10:29 PM 39.2 °F - 39.2 °F 100% 30.15 in 1.5 mi Calm Calm - N/A   Clear
10:53 PM 35.6 °F - 35.6 °F 100% 30.14 in 0.5 mi Calm Calm - N/A Fog Fog
10:55 PM 36.0 °F - 36.0 °F 100% 30.14 in 0.5 mi Calm Calm - N/A Fog Fog
11:03 PM 35.6 °F 32.8 °F 35.6 °F 100% 30.14 in 0.2 mi West 3.5 mph - N/A Fog Fog
11:16 PM 37.4 °F 34.9 °F 37.4 °F 100% 30.14 in 0.8 mi West 3.5 mph - N/A   Mist
11:19 PM 37.4 °F 33.8 °F 37.4 °F 100% 30.14 in 1.2 mi West 4.6 mph - N/A   Scattered Clouds
11:42 PM 37.4 °F 33.8 °F 37.4 °F 100% 30.14 in 2.5 mi NW 4.6 mph - N/A   Clear
11:55 PM 36.0 °F - 36.0 °F 100% 30.14 in 2.5 mi Calm Calm - N/A   Clear